Tracking 29059 objects as of 19-Jun-2024
HD Live streaming from Space Station
objects crossing your sky now

BLACKJACK ACES-2

Track BLACKJACK ACES-2 now!
10-day predictions


NORAD ID: 56955
Int'l Code: 2023-084Z
Perigee: 495.2 km
Apogee: 508.6 km
Inclination: 97.5 °
Period: 94.5 minutes
Semi major axis: 6872 km
RCS: Unknown
Launch date: June 12, 2023
Source: United States (US)
Launch site: AIR FORCE WESTERN TEST RANGE (AFWTR)
Your satellite tracking list
Your tracking list is empty




NASA's NSSDC Master Catalog

Two Line Element Set (TLE):
1 56955U 23084Z   24170.89528929  .00013668  00000-0  57156-3 0  9994
2 56955  97.5420 290.0237 0009726  13.6992 346.4507 15.23672985 56419
Source of the keplerian elements: AFSPC